Погода в Кузьмовке

Погода в Кузьмовке : погода сейчас, прогноз погоды и архив. Всё, что Вы хотите узнать о погоде в Кузьмовке!

Поиск расширенной информации на нашем сайте:

Другие новости

Новости СМИ2

Главная страница сайта

Новости сайта

03.07.2017

Напоминаем, что на нашем специализированном сайте Метеоцентр.Азия вы можете получить высокодетализированные автоматические прогнозы погоды по пунктам России, СНГ и мира в авиационном формате (включающие направление и скорость ветра, видимость, явления погоды, количество и форму облачности, нижнюю и верхнюю границу облачности).

Рекомендуем: Комплексные системы безопасности и слаботочные сети читать дальше.

Погода в Кузьмовке - сегодня

Время (UTC), дата Ветер
(°,м/с) 
Видим.   Явления Облачность Т
(°С)
Тd
(°С)
f(%) Тe
(°С)
Pmin
(гПа)
dP
(гПа)
Po
(мм)
O2
(г/м3)
Тmin Tmax R s Состояние
почвы
00 16.09.17 тихо ()   20000 м    10/10 600 м кучево-дожд. 
[Cb cap]
+1.9 +0.6 91 +2  1009.2  0.2  751  300  +1.9         
03 16.09.17 330 (СЗ) 20000 м    10/10 600 м кучево-дожд. 
[Cb cap]
+3.2 +0.8 84 +3  1009.2  751  299           
09 16.09.17 030 (СВ) 20000 м    8/8 600 м 
+7.5 +0.1 59 +7  1008.8  751  294           
12 16.09.17 080 (В) 20000 м    6/6 600 м 
[Sc]
+6 +0.6 68 +7  1010  1.2  752  296    +7.6       
00 17.09.17 050 (СВ) 20000 м    10/10 300 м 
[St]
-2.9 -3 99 -2  1014.3  1.4  755  308  -3.5         
03 17.09.17 240 (ЮЗ) 0500 м  туман  ?/?  
-1 -1.3 98 1015.1  0.8  755  306           
06 17.09.17 220 (ЮЗ) 20000 м  {туман}  3/3 600 м 
[Cu hum]
+6.7 +0.6 65 +8  1015.1  0.2  756  297           
09 17.09.17 190 (Ю) 20000 м    8/5 600 м верхняя 
[Cu med, cong|Ci fib]
+9.2 -1.8 46 +10  1014.7  -0.3  755  295           
12 17.09.17 090 (В) 20000 м    9/9 2000 м средняя 
[Ac und]
+5.6 +1.9 77 +6  1014.2  -0.6  755  298    +10.1       
15 17.09.17 110 (В) 20000 м    10/10 2000 м 
[Ac und]
+2.6 +1 89 +3  1014.1  -0.2  755  301           
18 17.09.17 140 (ЮВ) 20000 м    10/10 2000 м 
[Ac und]
+1.6 +0.8 94 +2  1012.7  -1.4  754  302           
21 17.09.17 090 (В) 2000 м    9/9 600 м 
[Sc]
+1.7 +0.9 94 +2  1010.3  -2.4  752  301           
00 18.09.17 100 (В) 20000 м    10/10 600 м 
[Sc]
+3.8 +2.6 92 +3  1007.5  -2.7  750  298  +0.8         
03 18.09.17 120 (ЮВ) 20000 м    10/10 600 м кучево-дожд. 
[Cb cap]
+5.4 +0.8 72 +4  1006  -1.5  749  296           
06 18.09.17 130 (ЮВ) 10 км  слаб. ливневой дождь  10/10 600 м кучево-дожд. 
[Cb cap]
+3.8 +2 88 +3  1005.1  -0.9  748  297           
09 18.09.17 200 (Ю) 20000 м  {ливн. осадки}  10/10 600 м кучево-дожд. 
[Cb cap]
+4.8 +2.3 84 +6  1004.6  -0.5  748  296           
12 18.09.17 тихо ()   10 км  слаб. ливневой дождь  10/10 600 м кучево-дожд. 
[Cb cap]
+4.2 +3.2 93 +4  1005  0.4  748  296    +5.1     
15 18.09.17 090 (В) 10 км  слаб. ливневой дождь  10/10 600 м кучево-дожд. 
[Cb cap]
+3.8 +3.3 97 +5  1005.6  0.6  748  297           
18 18.09.17 050 (СВ) 10 км  слаб. ливневой дождь  10/10 600 м кучево-дожд. 
[Cb cap]
+3.7 +3.5 99 +5  1006  0.4  749  297           
03 19.09.17 250 (З) 10 км  слаб. ливневой дождь  10/10 600 м кучево-дожд. 
[Cb cap]
+4.2 +2.7 90 +5  1007.7  750  297           
06 19.09.17 340 (С) 10 км  слаб. ливневой дождь  10/10 600 м кучево-дожд. 
[Cb cap]
+5.2 +3.8 91 +6  1008.6  0.9  751  296           
09 19.09.17 090 (В) 10 км  слаб. ливневой дождь  10/10 600 м кучево-дожд. 
[Cb cap]
+5.3 +3.9 91 +6  1010.3  1.7  752  297           
12 19.09.17 тихо ()   20000 м  {ливн. осадки}  10/10 600 м кучево-дожд. 
[Cb cap]
+4.5 +2.8 89 +5  1011.5  1.2  753  298    +5.3     
15 19.09.17 360 (С) 20000 м  в посл. час ливневой дождь  10/10 600 м кучево-дожд. 
[Cb cap]
+4 +3.5 97 +5  1012.6  1.1  754  299           
00 20.09.17 тихо ()   20000 м  {ливн. осадки}  10/10 600 м кучево-дожд. 
[Cb cap]
+3.8 +3.6 99 +4  1014.7  755  300  +3.8    0.6     
Время (UTC), дата Ветер
(°,м/с) 
Видим.   Явления Облачность Т
(°С)
Тd
(°С)
f(%) Тe
(°С)
Pmin
(гПа)
dP
(гПа)
Po
(мм)
O2
(г/м3)
Тmin Tmax R s Состояние
почвы

Для получения пояснительной информации подведите курсор к названию столбца.

ПОГОДА в Кузьмовке - архив

Всё, что Вы хотите узнать о погоде в Кузьмовке - удобно и подробно!

Выберите нужную дату (начиная с 1 января 2015* года) и нажмите кнопку "Найти".
Будут отображены архивные сводки погоды по пункту Кузьмовка, начиная с указанной даты.


Отображать данные в формате CSV (для использования в таблицах Excel)


Внимание! Наш архив погоды предназначен исключительно для личного некоммерческого использования в познавательных целях. Если Вам необходимы официальные справки о состоянии погоды (для производственных, юридических, коммерческих и т.п. целей), обращайтесь в органы Росгидромета.

*Примечание: данная дата относится к архиву по метеостанциям СССР (Россия, СНГ, Балтия).
Архив по метеостанциям Зарубежной Европы и Азии (кроме Китая) хранится 10 дней, по другим регионам земного шара (Китай, Африка, Америка, Австралия, Океания) - 1 день.

Кузьмовка - район местоположения метеостанции


Название, широта, долгота, высота метеостанции:
Кузьмовка 62.3°ш. 92.1°д. 60 м над ур. моря [Российская Федерация]

Дополнительная информация

В oтличие oт бoльшинства пoгoдных сайтoв мы публикуем пoдрoбную метеoинфoрмацию в детальнoм прoфессиoнальнoм фoрмате.

Характеристики температуры и влажнoсти вoздуха измеряются на высoте 2 м в тени вдали oт зданий и деревьев.
Скoрoсть ветра измеряется на высoте 10 м (на урoвне рoста челoвека скoрoсть ветра ниже в 1.5-2 раза). Если метеoстанция нахoдится в гoрoде или в лесу, тo скoрoсть ветра занижена на 2-4 м/с пo сравнению с oткрытым местoм. Скoрoсть ветра над акватoриями крупных рек и oзёр, а также на вершинах хoлмoв на 2-5 м/с выше, чем в oбычных услoвиях.
Атмoсфернoе давление в разных тoчках местнoсти мoжет значительнo oтличаться oт давления на метеoстанции, в зависимoсти oт услoвий рельефа (при пoдъёме на 10 м давление пoнижается примернo на 1 мм рт.ст.).